owner,sensor,date,latitude,longitude,vertical_datum,wind_speed,wind_to_direction,wind_speed_of_gust,qcFlag 
CenGOOS,ioos:station:wmo:42067:1,2015-11-01T05:40Z,30.0430,-88.6490,5.0,0.7,125.3,1.2,'1111122,1111122,1111122' 
CenGOOS,ioos:station:wmo:42067:1,2015-11-01T11:40Z,30.0430,-88.6490,5.0,6.3,8.6,7.7,'1111122,1111122,1111122' 
CenGOOS,ioos:station:wmo:42067:1,2015-11-01T14:40Z,30.0430,-88.6490,5.0,9.3,23.3,11.5,'1111122,1111122,1111122' 
CenGOOS,ioos:station:wmo:42067:1,2015-11-01T17:40Z,30.0430,-88.6490,5.0,8.8,34.2,10.8,'1111122,1111122,1111122' 
CenGOOS,ioos:station:wmo:42067:1,2015-11-01T20:40Z,30.0430,-88.6490,5.0,9.3,48.6,11.5,'1111122,1111122,1111122' 
CenGOOS,ioos:station:wmo:42067:1,2015-11-01T23:40Z,30.0430,-88.6490,5.0,10.6,70.0,13.1,'1111122,1111122,1111122' 
CenGOOS,ioos:station:wmo:42067:1,2015-11-02T02:40Z,30.0430,-88.6490,5.0,4.9,80.2,5.8,'1111122,1111122,1111122' 
CenGOOS,ioos:station:wmo:42067:1,2015-11-02T05:40Z,30.0430,-88.6490,5.0,0.4,208.1,1.7,'1111122,1111122,1111122' 
CenGOOS,ioos:station:wmo:42067:1,2015-11-02T08:40Z,30.0430,-88.6490,5.0,4.0,346.0,4.9,'1111122,1111122,1111122' 
CenGOOS,ioos:station:wmo:42067:1,2015-11-02T11:40Z,30.0430,-88.6490,5.0,1.5,7.9,2.1,'1111122,1111122,1111122' 
CenGOOS,ioos:station:wmo:42067:1,2015-11-02T14:40Z,30.0430,-88.6490,5.0,2.3,235.5,3.5,'1111122,1111122,1111122' 
CenGOOS,ioos:station:wmo:42067:1,2015-11-02T17:40Z,30.0430,-88.6490,5.0,6.8,256.3,8.4,'1111122,1111122,1111122' 
CenGOOS,ioos:station:wmo:42067:1,2015-11-02T20:40Z,30.0430,-88.6490,5.0,4.8,297.6,6.1,'1111122,1111122,1111122' 
CenGOOS,ioos:station:wmo:42067:1,2015-11-02T23:40Z,30.0430,-88.6490,5.0,6.4,328.4,7.5,'1111122,1111122,1111122' 
CenGOOS,ioos:station:wmo:42067:1,2015-11-03T02:40Z,30.0430,-88.6490,5.0,3.9,344.0,4.7,'1111122,1111122,1111122' 
CenGOOS,ioos:station:wmo:42067:1,2015-11-03T05:40Z,30.0430,-88.6490,5.0,4.2,348.7,5.1,'1111122,1111122,1111122' 
CenGOOS,ioos:station:wmo:42067:1,2015-11-03T08:40Z,30.0430,-88.6490,5.0,5.3,356.0,6.1,'1111122,1111122,1111122' 
CenGOOS,ioos:station:wmo:42067:1,2015-11-03T11:40Z,30.0430,-88.6490,5.0,4.8,10.6,5.6,'1111122,1111122,1111122' 
CenGOOS,ioos:station:wmo:42067:1,2015-11-03T14:40Z,30.0430,-88.6490,5.0,3.9,356.5,4.6,'1111122,1111122,1111122' 
CenGOOS,ioos:station:wmo:42067:1,2015-11-03T20:40Z,30.0430,-88.6490,5.0,1.7,299.7,2.4,'1111122,1111122,1111122' 
CenGOOS,ioos:station:wmo:42067:1,2015-11-03T23:40Z,30.0430,-88.6490,5.0,0.5,279.4,0.9,'1111122,1111122,1111122' 
CenGOOS,ioos:station:wmo:42067:1,2015-11-04T02:40Z,30.0430,-88.6490,5.0,2.1,150.1,2.7,'1111122,1111122,1111122' 
CenGOOS,ioos:station:wmo:42067:1,2015-11-04T08:40Z,30.0430,-88.6490,5.0,1.0,127.4,1.5,'1111122,1111122,1111122' 
CenGOOS,ioos:station:wmo:42067:1,2015-11-04T11:40Z,30.0430,-88.6490,5.0,0.4,31.8,0.8,'1111122,1111122,1111122' 
CenGOOS,ioos:station:wmo:42067:1,2015-11-04T14:40Z,30.0430,-88.6490,5.0,2.3,56.6,2.8,'1111122,1111122,1111122' 
CenGOOS,ioos:station:wmo:42067:1,2015-11-04T17:40Z,30.0430,-88.6490,5.0,3.5,75.9,4.4,'1111122,1111122,1111122' 
CenGOOS,ioos:station:wmo:42067:1,2015-11-04T20:40Z,30.0430,-88.6490,5.0,3.1,96.2,3.7,'1111122,1111122,1111122' 
CenGOOS,ioos:station:wmo:42067:1,2015-11-05T02:40Z,30.0430,-88.6490,5.0,2.3,71.2,2.8,'1111122,1111122,1111122' 
CenGOOS,ioos:station:wmo:42067:1,2015-11-05T05:40Z,30.0430,-88.6490,5.0,3.4,67.7,3.9,'1111122,1111122,1111122' 
CenGOOS,ioos:station:wmo:42067:1,2015-11-05T08:40Z,30.0430,-88.6490,5.0,3.0,91.4,3.7,'1111122,1111122,1111122' 
CenGOOS,ioos:station:wmo:42067:1,2015-11-05T11:40Z,30.0430,-88.6490,5.0,3.6,107.3,4.7,'1111122,1111122,1111122' 
CenGOOS,ioos:station:wmo:42067:1,2015-11-05T14:40Z,30.0430,-88.6490,5.0,4.3,105.3,5.0,'1111122,1111122,1111122' 
CenGOOS,ioos:station:wmo:42067:1,2015-11-05T17:40Z,30.0430,-88.6490,5.0,3.9,98.8,4.6,'1111122,1111122,1111122' 
CenGOOS,ioos:station:wmo:42067:1,2015-11-05T20:40Z,30.0430,-88.6490,5.0,4.4,95.7,5.1,'1111122,1111122,1111122' 
CenGOOS,ioos:station:wmo:42067:1,2015-11-05T23:40Z,30.0430,-88.6490,5.0,3.6,91.9,4.2,'1111122,1111122,1111122' 
CenGOOS,ioos:station:wmo:42067:1,2015-11-06T02:40Z,30.0430,-88.6490,5.0,4.1,128.2,4.9,'1111122,1111122,1111122' 
CenGOOS,ioos:station:wmo:42067:1,2015-11-06T05:40Z,30.0430,-88.6490,5.0,2.1,155.1,2.6,'1111122,1111122,1111122' 
CenGOOS,ioos:station:wmo:42067:1,2015-11-06T08:40Z,30.0430,-88.6490,5.0,0.8,147.5,0.9,'1111122,1111122,1111122' 
CenGOOS,ioos:station:wmo:42067:1,2015-11-06T11:40Z,30.0430,-88.6490,5.0,1.8,77.8,2.0,'1111122,1111122,1111122' 
CenGOOS,ioos:station:wmo:42067:1,2015-11-06T14:40Z,30.0430,-88.6490,5.0,2.4,107.8,2.9,'1111122,1111122,1111122' 
CenGOOS,ioos:station:wmo:42067:1,2015-11-06T17:40Z,30.0430,-88.6490,5.0,3.0,106.7,3.4,'1111122,1111122,1111122' 
CenGOOS,ioos:station:wmo:42067:1,2015-11-06T20:40Z,30.0430,-88.6490,5.0,3.7,134.8,4.3,'1111122,1111122,1111122' 
CenGOOS,ioos:station:wmo:42067:1,2015-11-06T23:40Z,30.0430,-88.6490,5.0,2.7,119.5,3.2,'1111122,1111122,1111122' 
CenGOOS,ioos:station:wmo:42067:1,2015-11-07T02:40Z,30.0430,-88.6490,5.0,3.3,147.6,4.1,'1111122,1111122,1111122' 
CenGOOS,ioos:station:wmo:42067:1,2015-11-07T05:40Z,30.0430,-88.6490,5.0,2.9,172.6,3.3,'1111122,1111122,1111122' 
CenGOOS,ioos:station:wmo:42067:1,2015-11-07T08:40Z,30.0430,-88.6490,5.0,1.3,65.1,1.6,'1111122,1111122,1111122' 
CenGOOS,ioos:station:wmo:42067:1,2015-11-07T11:40Z,30.0430,-88.6490,5.0,3.7,70.1,4.3,'1111122,1111122,1111122' 
CenGOOS,ioos:station:wmo:42067:1,2015-11-07T14:40Z,30.0430,-88.6490,5.0,5.6,93.0,6.6,'1111122,1111122,1111122' 
CenGOOS,ioos:station:wmo:42067:1,2015-11-07T17:40Z,30.0430,-88.6490,5.0,6.8,81.3,7.7,'1111122,1111122,1111122' 
CenGOOS,ioos:station:wmo:42067:1,2015-11-07T20:40Z,30.0430,-88.6490,5.0,7.1,77.3,8.0,'1111122,1111122,1111122' 
CenGOOS,ioos:station:wmo:42067:1,2015-11-07T23:40Z,30.0430,-88.6490,5.0,7.0,59.5,8.4,'1111122,1111122,1111122' 
CenGOOS,ioos:station:wmo:42067:1,2015-11-08T02:40Z,30.0430,-88.6490,5.0,12.3,30.5,16.0,'1111122,1111122,1111122' 
CenGOOS,ioos:station:wmo:42067:1,2015-11-08T05:40Z,30.0430,-88.6490,5.0,14.1,32.3,16.7,'1111122,1111122,1111122' 
CenGOOS,ioos:station:wmo:42067:1,2015-11-08T08:40Z,30.0430,-88.6490,5.0,13.4,23.3,16.9,'1111122,1111122,1111122' 
CenGOOS,ioos:station:wmo:42067:1,2015-11-08T17:40Z,30.0430,-88.6490,5.0,10.8,22.7,12.6,'1111122,1111122,1111122' 
CenGOOS,ioos:station:wmo:42067:1,2015-11-08T20:40Z,30.0430,-88.6490,5.0,11.6,20.9,14.3,'1111122,1111122,1111122' 
CenGOOS,ioos:station:wmo:42067:1,2015-11-08T23:40Z,30.0430,-88.6490,5.0,12.9,24.4,15.5,'1111122,1111122,1111122' 
CenGOOS,ioos:station:wmo:42067:1,2015-11-09T02:40Z,30.0430,-88.6490,5.0,12.2,16.7,14.9,'1111122,1111122,1111122' 
CenGOOS,ioos:station:wmo:42067:1,2015-11-09T05:40Z,30.0430,-88.6490,5.0,10.4,8.6,13.1,'1111122,1111122,1111122' 
CenGOOS,ioos:station:wmo:42067:1,2015-11-09T11:40Z,30.0430,-88.6490,5.0,9.1,351.2,11.1,'1111122,1111122,1111122' 
CenGOOS,ioos:station:wmo:42067:1,2015-11-09T14:40Z,30.0430,-88.6490,5.0,7.1,359.2,8.8,'1111122,1111122,1111122' 
CenGOOS,ioos:station:wmo:42067:1,2015-11-09T17:40Z,30.0430,-88.6490,5.0,7.6,310.7,9.5,'1111122,1111122,1111122' 
CenGOOS,ioos:station:wmo:42067:1,2015-11-09T20:40Z,30.0430,-88.6490,5.0,6.5,344.1,8.5,'1111122,1111122,1111122' 
CenGOOS,ioos:station:wmo:42067:1,2015-11-09T23:40Z,30.0430,-88.6490,5.0,7.9,0.5,10.0,'1111122,1111122,1111122' 
CenGOOS,ioos:station:wmo:42067:1,2015-11-10T02:40Z,30.0430,-88.6490,5.0,6.1,13.6,8.0,'1111122,1111122,1111122' 
CenGOOS,ioos:station:wmo:42067:1,2015-11-10T05:40Z,30.0430,-88.6490,5.0,4.3,13.1,6.5,'1111122,1111122,1111122' 
CenGOOS,ioos:station:wmo:42067:1,2015-11-10T11:40Z,30.0430,-88.6490,5.0,3.2,322.0,4.5,'1111122,1111122,1111122' 
CenGOOS,ioos:station:wmo:42067:1,2015-11-10T14:50Z,30.0430,-88.6490,5.0,4.4,323.9,5.9,'1111122,1111122,1111122' 
CenGOOS,ioos:station:wmo:42067:1,2015-11-10T17:40Z,30.0430,-88.6490,5.0,4.6,309.8,6.8,'1111122,1111122,1111122' 
CenGOOS,ioos:station:wmo:42067:1,2015-11-10T23:40Z,30.0430,-88.6490,5.0,0.9,62.7,2.0,'1111122,1111122,1111122' 
CenGOOS,ioos:station:wmo:42067:1,2015-11-11T02:40Z,30.0430,-88.6490,5.0,2.5,130.7,3.6,'1111122,1111122,1111122' 
CenGOOS,ioos:station:wmo:42067:1,2015-11-11T05:40Z,30.0430,-88.6490,5.0,2.5,170.2,4.2,'1111122,1111122,1111122' 
CenGOOS,ioos:station:wmo:42067:1,2015-11-11T08:40Z,30.0430,-88.6490,5.0,3.4,211.7,5.4,'1111122,1111122,1111122' 
CenGOOS,ioos:station:wmo:42067:1,2015-11-11T11:40Z,30.0430,-88.6490,5.0,1.3,276.0,2.4,'1111122,1111122,1111122' 
CenGOOS,ioos:station:wmo:42067:1,2015-11-11T14:40Z,30.0430,-88.6490,5.0,1.5,44.9,2.2,'1111122,1111122,1111122' 
CenGOOS,ioos:station:wmo:42067:1,2015-11-11T20:40Z,30.0430,-88.6490,5.0,4.0,162.8,5.1,'1111122,1111122,1111122' 
CenGOOS,ioos:station:wmo:42067:1,2015-11-11T23:40Z,30.0430,-88.6490,5.0,4.9,183.0,5.9,'1111122,1111122,1111122' 
CenGOOS,ioos:station:wmo:42067:1,2015-11-12T02:40Z,30.0430,-88.6490,5.0,6.0,187.2,7.1,'1111122,1111122,1111122' 
CenGOOS,ioos:station:wmo:42067:1,2015-11-12T08:40Z,30.0430,-88.6490,5.0,5.3,224.6,6.7,'1111122,1111122,1111122' 
CenGOOS,ioos:station:wmo:42067:1,2015-11-12T11:40Z,30.0430,-88.6490,5.0,6.7,211.4,7.8,'1111122,1111122,1111122' 
CenGOOS,ioos:station:wmo:42067:1,2015-11-12T14:40Z,30.0430,-88.6490,5.0,5.5,229.6,6.5,'1111122,1111122,1111122' 
CenGOOS,ioos:station:wmo:42067:1,2015-11-12T17:40Z,30.0430,-88.6490,5.0,8.3,334.4,9.8,'1111122,1111122,1111122' 
CenGOOS,ioos:station:wmo:42067:1,2015-11-12T20:40Z,30.0430,-88.6490,5.0,4.4,338.5,6.1,'1111122,1111122,1111122' 
CenGOOS,ioos:station:wmo:42067:1,2015-11-12T23:40Z,30.0430,-88.6490,5.0,6.5,342.6,8.1,'1111122,1111122,1111122' 
CenGOOS,ioos:station:wmo:42067:1,2015-11-13T02:40Z,30.0430,-88.6490,5.0,5.3,348.5,6.7,'1111122,1111122,1111122' 
CenGOOS,ioos:station:wmo:42067:1,2015-11-13T05:40Z,30.0430,-88.6490,5.0,10.7,355.1,12.7,'1111122,1111122,1111122' 
CenGOOS,ioos:station:wmo:42067:1,2015-11-13T11:40Z,30.0430,-88.6490,5.0,10.1,21.9,12.1,'1111122,1111122,1111122' 
CenGOOS,ioos:station:wmo:42067:1,2015-11-13T14:40Z,30.0430,-88.6490,5.0,9.6,24.6,11.5,'1111122,1111122,1111122' 
CenGOOS,ioos:station:wmo:42067:1,2015-11-13T17:40Z,30.0430,-88.6490,5.0,8.0,25.2,10.2,'1111122,1111122,1111122' 
CenGOOS,ioos:station:wmo:42067:1,2015-11-13T20:40Z,30.0430,-88.6490,5.0,7.8,350.7,9.4,'1111122,1111122,1111122' 
CenGOOS,ioos:station:wmo:42067:1,2015-11-13T23:40Z,30.0430,-88.6490,5.0,8.1,350.2,10.2,'1111122,1111122,1111122' 
CenGOOS,ioos:station:wmo:42067:1,2015-11-14T02:40Z,30.0430,-88.6490,5.0,9.7,13.4,12.0,'1111122,1111122,1111122' 
CenGOOS,ioos:station:wmo:42067:1,2015-11-14T05:40Z,30.0430,-88.6490,5.0,10.2,31.1,12.1,'1111122,1111122,1111122' 
CenGOOS,ioos:station:wmo:42067:1,2015-11-14T08:40Z,30.0430,-88.6490,5.0,11.3,41.9,13.7,'1111122,1111122,1111122' 
CenGOOS,ioos:station:wmo:42067:1,2015-11-14T11:40Z,30.0430,-88.6490,5.0,11.4,50.1,13.8,'1111122,1111122,1111122' 
CenGOOS,ioos:station:wmo:42067:1,2015-11-14T14:40Z,30.0430,-88.6490,5.0,12.8,52.0,15.7,'1111122,1111122,1111122' 
CenGOOS,ioos:station:wmo:42067:1,2015-11-14T20:40Z,30.0430,-88.6490,5.0,6.6,32.4,8.5,'1111122,1111122,1111122' 
CenGOOS,ioos:station:wmo:42067:1,2015-11-14T23:40Z,30.0430,-88.6490,5.0,8.3,33.4,9.9,'1111122,1111122,1111122' 
CenGOOS,ioos:station:wmo:42067:1,2015-11-15T02:40Z,30.0430,-88.6490,5.0,9.7,53.3,12.0,'1111122,1111122,1111122' 
CenGOOS,ioos:station:wmo:42067:1,2015-11-15T08:40Z,30.0430,-88.6490,5.0,8.7,79.5,10.9,'1111122,1111122,1111122' 
CenGOOS,ioos:station:wmo:42067:1,2015-11-15T11:40Z,30.0430,-88.6490,5.0,8.2,53.3,9.8,'1111122,1111122,1111122' 
CenGOOS,ioos:station:wmo:42067:1,2015-11-15T14:40Z,30.0430,-88.6490,5.0,8.2,63.5,9.8,'1111122,1111122,1111122' 
CenGOOS,ioos:station:wmo:42067:1,2015-11-15T17:40Z,30.0430,-88.6490,5.0,7.7,65.8,9.1,'1111122,1111122,1111122' 
CenGOOS,ioos:station:wmo:42067:1,2015-11-15T20:40Z,30.0430,-88.6490,5.0,8.2,71.3,9.5,'1111122,1111122,1111122' 
CenGOOS,ioos:station:wmo:42067:1,2015-11-15T23:40Z,30.0430,-88.6490,5.0,7.0,64.2,8.8,'1111122,1111122,1111122' 
CenGOOS,ioos:station:wmo:42067:1,2015-11-16T02:40Z,30.0430,-88.6490,5.0,9.3,64.0,11.0,'1111122,1111122,1111122' 
CenGOOS,ioos:station:wmo:42067:1,2015-11-16T05:40Z,30.0430,-88.6490,5.0,8.9,111.9,10.9,'1111122,1111122,1111122' 
CenGOOS,ioos:station:wmo:42067:1,2015-11-16T08:40Z,30.0430,-88.6490,5.0,8.5,108.0,10.7,'1111122,1111122,1111122' 
CenGOOS,ioos:station:wmo:42067:1,2015-11-16T11:40Z,30.0430,-88.6490,5.0,5.2,99.0,7.5,'1111122,1111122,1111122' 
CenGOOS,ioos:station:wmo:42067:1,2015-11-16T14:40Z,30.0430,-88.6490,5.0,7.7,67.9,8.9,'1111122,1111122,1111122' 
CenGOOS,ioos:station:wmo:42067:1,2015-11-16T17:40Z,30.0430,-88.6490,5.0,8.6,93.0,10.2,'1111122,1111122,1111122' 
CenGOOS,ioos:station:wmo:42067:1,2015-11-16T20:40Z,30.0430,-88.6490,5.0,6.7,92.4,8.3,'1111122,1111122,1111122' 
CenGOOS,ioos:station:wmo:42067:1,2015-11-16T23:40Z,30.0430,-88.6490,5.0,5.9,120.0,6.9,'1111122,1111122,1111122' 
CenGOOS,ioos:station:wmo:42067:1,2015-11-17T02:40Z,30.0430,-88.6490,5.0,7.0,134.7,8.6,'1111122,1111122,1111122' 
CenGOOS,ioos:station:wmo:42067:1,2015-11-17T05:40Z,30.0430,-88.6490,5.0,8.4,136.9,10.2,'1111122,1111122,1111122' 
CenGOOS,ioos:station:wmo:42067:1,2015-11-17T08:40Z,30.0430,-88.6490,5.0,5.7,134.4,7.0,'1111122,1111122,1111122' 
CenGOOS,ioos:station:wmo:42067:1,2015-11-17T11:40Z,30.0430,-88.6490,5.0,8.6,140.9,10.1,'1111122,1111122,1111122' 
CenGOOS,ioos:station:wmo:42067:1,2015-11-17T14:40Z,30.0430,-88.6490,5.0,7.9,138.3,9.2,'1111122,1111122,1111122' 
CenGOOS,ioos:station:wmo:42067:1,2015-11-17T17:40Z,30.0430,-88.6490,5.0,9.5,142.2,11.5,'1111122,1111122,1111122' 
CenGOOS,ioos:station:wmo:42067:1,2015-11-17T20:40Z,30.0430,-88.6490,5.0,8.9,137.6,10.3,'1111122,1111122,1111122' 
CenGOOS,ioos:station:wmo:42067:1,2015-11-17T23:40Z,30.0430,-88.6490,5.0,9.2,140.9,11.3,'1111122,1111122,1111122' 
CenGOOS,ioos:station:wmo:42067:1,2015-11-18T02:40Z,30.0430,-88.6490,5.0,10.3,144.3,13.5,'1111122,1111122,1111122' 
CenGOOS,ioos:station:wmo:42067:1,2015-11-18T05:40Z,30.0430,-88.6490,5.0,8.3,146.9,9.9,'1111122,1111122,1111122' 
CenGOOS,ioos:station:wmo:42067:1,2015-11-18T08:40Z,30.0430,-88.6490,5.0,6.3,169.1,7.3,'1111122,1111122,1111122' 
CenGOOS,ioos:station:wmo:42067:1,2015-11-18T11:40Z,30.0430,-88.6490,5.0,10.5,184.2,12.9,'1111122,1111122,1111122' 
CenGOOS,ioos:station:wmo:42067:1,2015-11-18T17:40Z,30.0430,-88.6490,5.0,3.4,286.9,5.0,'1111122,1111122,1111122' 
CenGOOS,ioos:station:wmo:42067:1,2015-11-18T20:40Z,30.0430,-88.6490,5.0,5.5,285.5,7.9,'1111122,1111122,1111122' 
CenGOOS,ioos:station:wmo:42067:1,2015-11-18T23:40Z,30.0430,-88.6490,5.0,1.2,359.2,2.1,'1111122,1111122,1111122' 
CenGOOS,ioos:station:wmo:42067:1,2015-11-19T02:40Z,30.0430,-88.6490,5.0,4.2,355.9,5.7,'1111122,1111122,1111122' 
CenGOOS,ioos:station:wmo:42067:1,2015-11-19T05:40Z,30.0430,-88.6490,5.0,3.6,10.6,4.7,'1111122,1111122,1111122' 
CenGOOS,ioos:station:wmo:42067:1,2015-11-19T08:40Z,30.0430,-88.6490,5.0,6.9,360.0,7.9,'1111122,1111122,1111122' 
CenGOOS,ioos:station:wmo:42067:1,2015-11-19T11:40Z,30.0430,-88.6490,5.0,6.2,357.5,7.6,'1111122,1111122,1111122' 
CenGOOS,ioos:station:wmo:42067:1,2015-11-19T14:40Z,30.0430,-88.6490,5.0,8.0,20.7,10.0,'1111122,1111122,1111122' 
CenGOOS,ioos:station:wmo:42067:1,2015-11-19T17:40Z,30.0430,-88.6490,5.0,7.0,13.1,8.5,'1111122,1111122,1111122' 
CenGOOS,ioos:station:wmo:42067:1,2015-11-19T20:40Z,30.0430,-88.6490,5.0,3.2,27.4,4.0,'1111122,1111122,1111122' 
CenGOOS,ioos:station:wmo:42067:1,2015-11-19T23:40Z,30.0430,-88.6490,5.0,6.0,22.0,7.0,'1111122,1111122,1111122' 
CenGOOS,ioos:station:wmo:42067:1,2015-11-20T05:40Z,30.0430,-88.6490,5.0,8.6,19.3,9.9,'1111122,1111122,1111122' 
CenGOOS,ioos:station:wmo:42067:1,2015-11-20T08:40Z,30.0430,-88.6490,5.0,8.9,35.5,11.0,'1111122,1111122,1111122' 
CenGOOS,ioos:station:wmo:42067:1,2015-11-20T14:40Z,30.0430,-88.6490,5.0,8.7,45.4,10.5,'1111122,1111122,1111122' 
CenGOOS,ioos:station:wmo:42067:1,2015-11-20T17:40Z,30.0430,-88.6490,5.0,7.4,79.6,8.9,'1111122,1111122,1111122' 
CenGOOS,ioos:station:wmo:42067:1,2015-11-20T20:40Z,30.0430,-88.6490,5.0,4.6,66.2,5.7,'1111122,1111122,1111122' 
CenGOOS,ioos:station:wmo:42067:1,2015-11-20T23:40Z,30.0430,-88.6490,5.0,3.6,86.0,4.3,'1111122,1111122,1111122' 
CenGOOS,ioos:station:wmo:42067:1,2015-11-21T02:40Z,30.0430,-88.6490,5.0,3.5,59.9,4.1,'1111122,1111122,1111122' 
CenGOOS,ioos:station:wmo:42067:1,2015-11-21T08:40Z,30.0430,-88.6490,5.0,4.1,41.8,4.8,'1111122,1111122,1111122' 
CenGOOS,ioos:station:wmo:42067:1,2015-11-21T11:40Z,30.0430,-88.6490,5.0,4.2,47.4,4.9,'1111122,1111122,1111122' 
CenGOOS,ioos:station:wmo:42067:1,2015-11-21T17:40Z,30.0430,-88.6490,5.0,4.8,36.8,5.5,'1111122,1111122,1111122' 
CenGOOS,ioos:station:wmo:42067:1,2015-11-21T23:40Z,30.0430,-88.6490,5.0,4.8,335.7,5.7,'1111122,1111122,1111122' 
CenGOOS,ioos:station:wmo:42067:1,2015-11-22T05:40Z,30.0430,-88.6490,5.0,11.6,359.2,13.7,'1111122,1111122,1111122' 
CenGOOS,ioos:station:wmo:42067:1,2015-11-22T08:40Z,30.0430,-88.6490,5.0,11.7,349.8,14.3,'1111122,1111122,1111122' 
CenGOOS,ioos:station:wmo:42067:1,2015-11-22T11:40Z,30.0430,-88.6490,5.0,11.9,1.8,14.8,'1111122,1111122,1111122' 
CenGOOS,ioos:station:wmo:42067:1,2015-11-22T14:40Z,30.0430,-88.6490,5.0,11.1,357.6,15.1,'1111122,1111122,1111122' 
CenGOOS,ioos:station:wmo:42067:1,2015-11-22T20:40Z,30.0430,-88.6490,5.0,9.0,351.1,11.3,'1111122,1111122,1111122' 
CenGOOS,ioos:station:wmo:42067:1,2015-11-22T23:40Z,30.0430,-88.6490,5.0,8.4,352.4,11.0,'1111122,1111122,1111122' 
CenGOOS,ioos:station:wmo:42067:1,2015-11-23T02:40Z,30.0430,-88.6490,5.0,8.6,359.7,10.9,'1111122,1111122,1111122' 
CenGOOS,ioos:station:wmo:42067:1,2015-11-23T05:40Z,30.0430,-88.6490,5.0,9.6,7.4,11.8,'1111122,1111122,1111122' 
CenGOOS,ioos:station:wmo:42067:1,2015-11-23T08:40Z,30.0430,-88.6490,5.0,8.6,22.9,10.8,'1111122,1111122,1111122' 
CenGOOS,ioos:station:wmo:42067:1,2015-11-23T11:40Z,30.0430,-88.6490,5.0,9.3,26.1,11.7,'1111122,1111122,1111122' 
CenGOOS,ioos:station:wmo:42067:1,2015-11-23T17:40Z,30.0430,-88.6490,5.0,7.4,30.6,9.4,'1111122,1111122,1111122' 
CenGOOS,ioos:station:wmo:42067:1,2015-11-23T20:40Z,30.0430,-88.6490,5.0,5.8,41.5,7.5,'1111122,1111122,1111122' 
CenGOOS,ioos:station:wmo:42067:1,2015-11-24T02:40Z,30.0430,-88.6490,5.0,8.6,40.2,10.3,'1111122,1111122,1111122' 
CenGOOS,ioos:station:wmo:42067:1,2015-11-24T05:40Z,30.0430,-88.6490,5.0,9.1,56.0,10.9,'1111122,1111122,1111122' 
CenGOOS,ioos:station:wmo:42067:1,2015-11-24T08:40Z,30.0430,-88.6490,5.0,8.9,74.5,11.2,'1111122,1111122,1111122' 
CenGOOS,ioos:station:wmo:42067:1,2015-11-24T11:40Z,30.0430,-88.6490,5.0,8.1,81.8,9.9,'1111122,1111122,1111122' 
CenGOOS,ioos:station:wmo:42067:1,2015-11-24T14:40Z,30.0430,-88.6490,5.0,9.4,57.1,11.3,'1111122,1111122,1111122' 
CenGOOS,ioos:station:wmo:42067:1,2015-11-24T17:40Z,30.0430,-88.6490,5.0,8.6,66.1,10.1,'1111122,1111122,1111122' 
CenGOOS,ioos:station:wmo:42067:1,2015-11-24T20:40Z,30.0430,-88.6490,5.0,9.9,56.3,12.6,'1111122,1111122,1111122' 
CenGOOS,ioos:station:wmo:42067:1,2015-11-24T23:40Z,30.0430,-88.6490,5.0,8.7,71.6,11.6,'1111122,1111122,1111122' 
CenGOOS,ioos:station:wmo:42067:1,2015-11-25T02:40Z,30.0430,-88.6490,5.0,9.3,80.9,11.1,'1111122,1111122,1111122' 
CenGOOS,ioos:station:wmo:42067:1,2015-11-25T05:40Z,30.0430,-88.6490,5.0,7.7,67.8,9.6,'1111122,1111122,1111122' 
CenGOOS,ioos:station:wmo:42067:1,2015-11-25T08:40Z,30.0430,-88.6490,5.0,9.0,54.1,10.9,'1111122,1111122,1111122' 
CenGOOS,ioos:station:wmo:42067:1,2015-11-25T11:40Z,30.0430,-88.6490,5.0,9.1,80.9,11.0,'1111122,1111122,1111122' 
CenGOOS,ioos:station:wmo:42067:1,2015-11-25T20:40Z,30.0430,-88.6490,5.0,9.6,96.7,11.6,'1111122,1111122,1111122' 
CenGOOS,ioos:station:wmo:42067:1,2015-11-25T23:40Z,30.0430,-88.6490,5.0,10.2,108.6,12.5,'1111122,1111122,1111122' 
CenGOOS,ioos:station:wmo:42067:1,2015-11-26T02:40Z,30.0430,-88.6490,5.0,9.3,110.4,11.3,'1111122,1111122,1111122' 
CenGOOS,ioos:station:wmo:42067:1,2015-11-26T05:40Z,30.0430,-88.6490,5.0,10.9,84.1,13.6,'1111122,1111122,1111122' 
CenGOOS,ioos:station:wmo:42067:1,2015-11-26T08:40Z,30.0430,-88.6490,5.0,9.3,108.0,11.4,'1111122,1111122,1111122' 
CenGOOS,ioos:station:wmo:42067:1,2015-11-26T11:40Z,30.0430,-88.6490,5.0,10.8,102.2,13.3,'1111122,1111122,1111122' 
CenGOOS,ioos:station:wmo:42067:1,2015-11-26T20:40Z,30.0430,-88.6490,5.0,8.1,101.2,10.2,'1111122,1111122,1111122' 
CenGOOS,ioos:station:wmo:42067:1,2015-11-26T23:40Z,30.0430,-88.6490,5.0,6.9,80.1,8.5,'1111122,1111122,1111122' 
CenGOOS,ioos:station:wmo:42067:1,2015-11-27T02:40Z,30.0430,-88.6490,5.0,7.8,123.8,9.4,'1111122,1111122,1111122' 
CenGOOS,ioos:station:wmo:42067:1,2015-11-27T05:40Z,30.0430,-88.6490,5.0,6.6,86.2,8.2,'1111122,1111122,1111122' 
CenGOOS,ioos:station:wmo:42067:1,2015-11-27T08:40Z,30.0430,-88.6490,5.0,7.9,111.7,10.0,'1111122,1111122,1111122' 
CenGOOS,ioos:station:wmo:42067:1,2015-11-27T11:40Z,30.0430,-88.6490,5.0,8.1,103.3,9.9,'1111122,1111122,1111122' 
CenGOOS,ioos:station:wmo:42067:1,2015-11-27T14:40Z,30.0430,-88.6490,5.0,6.4,75.9,7.5,'1111122,1111122,1111122' 
CenGOOS,ioos:station:wmo:42067:1,2015-11-27T17:40Z,30.0430,-88.6490,5.0,7.6,94.7,8.8,'1111122,1111122,1111122' 
CenGOOS,ioos:station:wmo:42067:1,2015-11-27T23:40Z,30.0430,-88.6490,5.0,6.7,82.9,7.8,'1111122,1111122,1111122' 
CenGOOS,ioos:station:wmo:42067:1,2015-11-28T02:40Z,30.0430,-88.6490,5.0,5.3,104.3,6.6,'1111122,1111122,1111122' 
CenGOOS,ioos:station:wmo:42067:1,2015-11-28T05:40Z,30.0430,-88.6490,5.0,5.3,126.4,6.2,'1111122,1111122,1111122' 
CenGOOS,ioos:station:wmo:42067:1,2015-11-28T08:40Z,30.0430,-88.6490,5.0,4.9,123.4,5.9,'1111122,1111122,1111122' 
CenGOOS,ioos:station:wmo:42067:1,2015-11-28T11:40Z,30.0430,-88.6490,5.0,5.0,89.4,5.9,'1111122,1111122,1111122' 
CenGOOS,ioos:station:wmo:42067:1,2015-11-28T14:40Z,30.0430,-88.6490,5.0,5.0,78.1,6.3,'1111122,1111122,1111122' 
CenGOOS,ioos:station:wmo:42067:1,2015-11-28T17:40Z,30.0430,-88.6490,5.0,5.2,74.7,6.0,'1111122,1111122,1111122' 
CenGOOS,ioos:station:wmo:42067:1,2015-11-28T20:40Z,30.0430,-88.6490,5.0,3.5,98.2,4.1,'1111122,1111122,1111122' 
CenGOOS,ioos:station:wmo:42067:1,2015-11-28T23:40Z,30.0430,-88.6490,5.0,3.7,114.3,4.2,'1111122,1111122,1111122' 
CenGOOS,ioos:station:wmo:42067:1,2015-11-29T02:40Z,30.0430,-88.6490,5.0,2.3,113.3,2.9,'1111122,1111122,1111122' 
CenGOOS,ioos:station:wmo:42067:1,2015-11-29T05:40Z,30.0430,-88.6490,5.0,2.1,125.8,2.6,'1111122,1111122,1111122' 
CenGOOS,ioos:station:wmo:42067:1,2015-11-29T11:40Z,30.0430,-88.6490,5.0,1.4,166.9,1.8,'1111122,1111122,1111122' 
CenGOOS,ioos:station:wmo:42067:1,2015-11-29T14:40Z,30.0430,-88.6490,5.0,1.8,162.7,2.2,'1111122,1111122,1111122' 
CenGOOS,ioos:station:wmo:42067:1,2015-11-29T17:40Z,30.0430,-88.6490,5.0,1.3,177.1,2.1,'1111122,1111122,1111122' 
CenGOOS,ioos:station:wmo:42067:1,2015-11-29T20:40Z,30.0430,-88.6490,5.0,1.5,185.4,2.0,'1111122,1111122,1111122' 
CenGOOS,ioos:station:wmo:42067:1,2015-11-29T23:40Z,30.0430,-88.6490,5.0,1.5,144.5,2.3,'1111122,1111122,1111122' 
CenGOOS,ioos:station:wmo:42067:1,2015-11-30T02:40Z,30.0430,-88.6490,5.0,1.1,10.2,1.4,'1111122,1111122,1111122' 
CenGOOS,ioos:station:wmo:42067:1,2015-11-30T11:40Z,30.0430,-88.6490,5.0,1.0,182.1,1.8,'1111122,1111122,1111122' 
CenGOOS,ioos:station:wmo:42067:1,2015-11-30T14:40Z,30.0430,-88.6490,5.0,3.2,151.6,3.7,'1111122,1111122,1111122' 
CenGOOS,ioos:station:wmo:42067:1,2015-11-30T17:40Z,30.0430,-88.6490,5.0,3.6,121.7,4.2,'1111122,1111122,1111122' 
CenGOOS,ioos:station:wmo:42067:1,2015-11-30T20:40Z,30.0430,-88.6490,5.0,3.5,110.6,4.1,'1111122,1111122,1111122' 
CenGOOS,ioos:station:wmo:42067:1,2015-11-30T23:40Z,30.0430,-88.6490,5.0,2.2,113.2,2.8,'1111122,1111122,1111122' 
 
DISCLAIMER: The Gulf of Mexico Coastal and Ocean Observing (GCOOS) Data Portal aggregates data from the regional data providers for the convenience of all data users. Data published on this website should not be used for navigation or certain other uses as we cannot guarantee data accuracy or availability. The data and delivery services are provided 'as is' without warranty of any kind. Data Source: Gulf of Mexico Coastal Ocean Observing System Data Portal (http://data.gcoos.org/) 
